Maple Lake, MN

2:58 AM CDT on June 25, 2017 (GMT -0500)
Maple Lake Municipal

Weather History for KMGG - June, 2013

Change the Weather History Date:

Saturday, June 15, 2013

  Actual Average (KSTC) Record (KSTC)
Temperature  
Mean Temperature 68 °F -  
Max Temperature 78 °F 74 °F 95 °F (1933)
Min Temperature 57 °F 53 °F 34 °F (1989)
Cooling Degree Days 4    
Growing Degree Days 18 (Base 50)    
Moisture  
Dew Point 63 °F    
Average Humidity 78    
Maximum Humidity 97    
Minimum Humidity 52    
Precipitation  
Precipitation 0.00 in - - ()
Sea Level Pressure  
Sea Level Pressure 29.89 in    
Wind  
Wind Speed 4 mph (SW)    
Max Wind Speed 10 mph    
Max Gust Speed 20 mph    
Visibility 10 miles    
Events Rain , Thunderstorm    
Averages and records for this station are not official NWS values.
T = Trace of Precipitation, MM = Missing Value Source: NWS Daily Summary

Daily Weather History Graph

Daily Weather History Graph

Search for Another Location

Airport or City:

Trip Planner

Search our weather history database for the weather conditions in past years. The results will help you decide how hot, cold, wet, or windy it might be!

Date:

Astronomy

Jun. 15, 2013 Rise Set
Actual Time 5:27 AM CDT 9:05 PM CDT
Civil Twilight 4:50 AM CDT 9:43 PM CDT
Nautical Twilight 3:59 AM CDT 10:33 PM CDT
Astronomical Twilight 2:53 AM CDT 11:40 PM CDT
Moon 12:20 PM CDT (6/15) 12:25 AM CDT (6/15)
Length of Visible Light 16h 53m
Length of Day
15h 37m
Waxing Crescent, 40% of the Moon is Illuminated
Jun 15
Waxing Crescent
Jun 16
First Quarter
Jun 23
Full
Jun 29
Last Quarter
Jul 8
New

Hourly Weather History & Observations

Time (CDT) Temp. Dew Point Humidity Pressure Visibility Wind Dir Wind Speed Gust Speed Precip Events Conditions
12:17 AM 70.7 °F 62.4 °F 75% 29.89 in 10.0 mi South 4.6 mph - N/A   Overcast
12:37 AM 70.7 °F 62.4 °F 75% 29.89 in 10.0 mi SSE 4.6 mph - N/A   Overcast
12:56 AM 70.3 °F 62.2 °F 75% 29.89 in 10.0 mi South 5.8 mph - N/A   Overcast
1:17 AM 70.2 °F 62.6 °F 77% 29.89 in 10.0 mi South 9.2 mph - N/A   Overcast
1:36 AM 69.8 °F 62.8 °F 78% 29.88 in 10.0 mi South 8.1 mph - N/A   Overcast
1:57 AM 68.9 °F 63.0 °F 81% 29.89 in 10.0 mi South 6.9 mph - N/A   Overcast
2:16 AM 68.9 °F 63.5 °F 83% 29.89 in 10.0 mi South 4.6 mph - N/A   Overcast
2:37 AM 68.2 °F 63.5 °F 85% 29.89 in 10.0 mi South 4.6 mph - N/A   Overcast
2:57 AM 67.6 °F 63.5 °F 87% 29.89 in 10.0 mi South 5.8 mph - N/A   Overcast
3:16 AM 67.3 °F 63.7 °F 88% 29.89 in 10.0 mi SSE 4.6 mph - N/A   Overcast
3:37 AM 67.1 °F 63.7 °F 89% 29.89 in 10.0 mi SSE 3.5 mph - N/A   Mostly Cloudy
3:56 AM 66.6 °F 63.9 °F 91% 29.88 in 10.0 mi Calm Calm - N/A   Scattered Clouds
4:16 AM 66.2 °F 63.9 °F 92% 29.88 in 10.0 mi Calm Calm - N/A   Clear
4:37 AM 66.0 °F 63.7 °F 92% 29.87 in 10.0 mi SSE 3.5 mph - N/A   Clear
4:56 AM 65.7 °F 63.5 °F 93% 29.87 in 10.0 mi South 3.5 mph - N/A   Clear
5:17 AM 64.9 °F 63.3 °F 94% 29.88 in 10.0 mi Calm Calm - N/A   Clear
5:36 AM 64.8 °F 63.5 °F 96% 29.88 in 10.0 mi SSE 3.5 mph - N/A   Clear
5:57 AM 64.4 °F 63.3 °F 96% 29.88 in 10.0 mi Calm Calm - N/A   Clear
6:16 AM 64.4 °F 63.5 °F 97% 29.87 in 7.0 mi Calm Calm - N/A   Clear
6:36 AM 65.3 °F 64.2 °F 96% 29.87 in 10.0 mi Calm Calm - N/A   Clear
6:57 AM 66.2 °F 64.6 °F 94% 29.89 in 10.0 mi Calm Calm - N/A   Scattered Clouds
7:17 AM 66.4 °F 64.8 °F 95% 29.90 in 10.0 mi SSW 3.5 mph - N/A   Overcast
7:36 AM 67.1 °F 65.3 °F 94% 29.90 in 10.0 mi Calm Calm - N/A   Overcast
7:56 AM 68.0 °F 65.5 °F 92% 29.89 in 10.0 mi Calm Calm - N/A   Mostly Cloudy
8:17 AM 69.8 °F 66.2 °F 88% 29.89 in 10.0 mi WSW 8.1 mph - N/A   Clear
8:37 AM 69.8 °F 66.2 °F 88% 29.89 in 10.0 mi West 5.8 mph - N/A   Clear
8:57 AM 70.5 °F 66.6 °F 87% 29.90 in 10.0 mi WSW 5.8 mph - N/A   Clear
9:16 AM 70.7 °F 66.9 °F 88% 29.91 in 10.0 mi West 3.5 mph - N/A   Mostly Cloudy
9:36 AM 71.8 °F 67.3 °F 86% 29.91 in 10.0 mi WNW 5.8 mph - N/A   Scattered Clouds
9:57 AM 72.3 °F 67.3 °F 84% 29.91 in 10.0 mi West 4.6 mph - N/A   Scattered Clouds
10:17 AM 73.4 °F 68.2 °F 84% 29.90 in 10.0 mi NNW 4.6 mph - N/A   Clear
10:37 AM 74.3 °F 68.2 °F 81% 29.90 in 10.0 mi NNW 5.8 mph - N/A   Clear
10:57 AM 74.5 °F 68.0 °F 80% 29.90 in 10.0 mi North 10.4 mph - N/A   Scattered Clouds
11:16 AM 75.0 °F 68.0 °F 79% 29.90 in 10.0 mi NNW 9.2 mph - N/A   Mostly Cloudy
11:37 AM 74.8 °F 67.8 °F 79% 29.89 in 10.0 mi North 8.1 mph - N/A   Mostly Cloudy
11:57 AM 75.2 °F 67.8 °F 78% 29.90 in 10.0 mi North 6.9 mph - N/A   Mostly Cloudy
12:16 PM 74.7 °F 67.5 °F 78% 29.92 in 10.0 mi North 4.6 mph - N/A   Overcast
12:37 PM 74.3 °F 67.3 °F 79% 29.92 in 10.0 mi North 4.6 mph - N/A   Overcast
12:57 PM 73.4 °F 67.3 °F 81% 29.93 in 10.0 mi Calm Calm - N/A Thunderstorm Thunderstorm
1:16 PM 75.2 °F 67.5 °F 77% 29.91 in 10.0 mi NNE 3.5 mph - N/A Thunderstorm Mostly Cloudy
1:37 PM 75.4 °F 67.1 °F 75% 29.91 in 10.0 mi North 4.6 mph - N/A Thunderstorm Mostly Cloudy
1:57 PM 75.2 °F 67.1 °F 76% 29.90 in 10.0 mi NE 4.6 mph - N/A Thunderstorm Mostly Cloudy
2:16 PM 76.1 °F 68.7 °F 78% 29.90 in 10.0 mi Calm Calm - N/A   Scattered Clouds
2:36 PM 77.0 °F 68.2 °F 74% 29.89 in 10.0 mi ENE 3.5 mph - N/A   Scattered Clouds
2:57 PM 76.3 °F 68.0 °F 75% 29.90 in 10.0 mi Calm Calm - N/A   Scattered Clouds
3:17 PM 76.8 °F 67.6 °F 73% 29.90 in 10.0 mi NW 4.6 mph - N/A Thunderstorm Scattered Clouds
3:36 PM 78.8 °F 67.6 °F 68% 29.91 in 10.0 mi SW 3.5 mph - N/A   Mostly Cloudy
3:57 PM 71.1 °F 63.5 °F 77% 29.91 in 10.0 mi SSW 5.8 mph 19.6 mph N/A   Mostly Cloudy
4:16 PM 73.8 °F 64.8 °F 73% 29.91 in 10.0 mi SSW 5.8 mph - N/A Rain Light Rain
4:37 PM 75.7 °F 62.6 °F 64% 29.90 in 10.0 mi South 8.1 mph - N/A   Scattered Clouds
4:57 PM 76.6 °F 63.0 °F 62% 29.89 in 10.0 mi SW 5.8 mph - N/A   Clear
5:17 PM 77.2 °F 62.2 °F 60% 29.88 in 10.0 mi SSW 5.8 mph - N/A   Clear
5:36 PM 77.9 °F 63.0 °F 60% 29.87 in 10.0 mi SW 4.6 mph - N/A   Clear
5:57 PM 77.9 °F 62.8 °F 60% 29.87 in 10.0 mi Calm Calm - N/A   Clear
6:16 PM 78.1 °F 64.4 °F 63% 29.86 in 10.0 mi Calm Calm - N/A   Clear
6:36 PM 78.1 °F 62.2 °F 58% 29.87 in 10.0 mi West 3.5 mph - N/A   Clear
6:57 PM 78.3 °F 60.6 °F 54% 29.86 in 10.0 mi Calm Calm - N/A   Clear
7:16 PM 78.1 °F 62.6 °F 59% 29.87 in 10.0 mi WSW 3.5 mph - N/A   Clear
7:36 PM 78.1 °F 60.6 °F 55% 29.87 in 10.0 mi WSW 3.5 mph - N/A   Clear
7:57 PM 77.4 °F 58.3 °F 52% 29.87 in 10.0 mi West 5.8 mph - N/A   Clear
8:17 PM 75.2 °F 57.0 °F 53% 29.87 in 10.0 mi Calm Calm - N/A   Clear
8:36 PM 73.2 °F 57.0 °F 57% 29.87 in 10.0 mi NW 3.5 mph - N/A   Clear
8:57 PM 72.0 °F 55.8 °F 57% 29.88 in 10.0 mi NW 3.5 mph - N/A   Clear
9:16 PM 69.3 °F 56.7 °F 64% 29.88 in 10.0 mi Calm Calm - N/A   Clear
9:37 PM 65.3 °F 57.6 °F 76% 29.89 in 10.0 mi Calm Calm - N/A   Clear
9:57 PM 64.2 °F 55.4 °F 73% 29.90 in 10.0 mi Calm Calm - N/A   Clear
10:16 PM 61.7 °F 56.5 °F 83% 29.90 in 10.0 mi Calm Calm - N/A   Clear
10:37 PM 61.7 °F 56.5 °F 83% 29.91 in 10.0 mi Calm Calm - N/A   Clear
10:56 PM 59.5 °F 56.3 °F 89% 29.91 in 10.0 mi Calm Calm - N/A   Clear
11:16 PM 59.7 °F 56.3 °F 88% 29.91 in 10.0 mi Calm Calm - N/A   Clear
11:37 PM 59.9 °F 55.4 °F 85% 29.90 in 10.0 mi Calm Calm - N/A   Clear
11:57 PM 57.7 °F 55.4 °F 92% 29.90 in 10.0 mi Calm Calm - N/A   Clear